START_TIME,STEP,MOV.,M6,t_acc.,M7,t_acc.,M19,t_acc.,H36,t_acc.
1981-08-24 09:02:33.570 ,0,0,,0,,0,,0,,0
1981-08-24 09:02:45.570 ,0,0,0.,12.0,0.,12.0,0.,12.0,0.,12.0
1981-08-24 09:02:52.170 ,1,1,0.,12.0,0.,12.0,0.,12.0,0.,12.0
1981-08-24 09:03:04.170 ,1,1,0.,12.0,0.,12.0,0.,12.0,0.,12.0
1981-08-24 09:03:16.170 ,2,1,0.,12.0,0.,12.0,0.,12.0,0.,12.0
1981-08-24 09:03:28.170 ,2,1,0.,12.0,0.,12.0,0.,12.0,0.,12.0
1981-08-24 09:03:40.170 ,3,1,0.,12.0,0.,12.0,0.,12.0,0.,12.0
1981-08-24 09:03:52.170 ,3,1,0.,12.0,0.,12.0,0.,12.0,0.,12.0
1981-08-24 09:04:04.170 ,4,1,0.,12.0,0.,12.0,0.,12.0,0.,12.0
1981-08-24 09:04:16.170 ,4,1,0.,12.0,0.,12.0,0.,12.0,0.,12.0
1981-08-24 09:04:28.170 ,5,1,0.,12.0,0.,12.0,0.,12.0,0.,12.0
1981-08-24 09:04:40.170 ,5,1,0.,12.0,0.,12.0,0.,12.0,0.,12.0
1981-08-24 09:04:52.170 ,6,1,0.,12.0,0.,12.0,0.,12.0,0.,12.0
1981-08-24 09:05:04.170 ,6,1,0.,12.0,0.,12.0,0.,12.0,0.,12.0
1981-08-24 09:05:16.170 ,7,1,0.,12.0,0.,12.0,0.,12.0,0.,12.0
1981-08-24 09:05:28.170 ,7,1,0.,12.0,0.,12.0,0.,12.0,0.,12.0
1981-08-24 09:05:40.170 ,7,1,0.,12.0,0.,12.0,0.,12.0,0.,12.0
1981-08-24 09:05:52.170 ,7,1,0.,12.0,0.,12.0,0.,12.0,0.,12.0
1981-08-24 09:06:04.170 ,7,0,0.,12.0,0.,12.0,0.,12.0,0.,12.0
1981-08-24 09:06:16.170 ,7,0,0.,12.0,0.,12.0,0.,12.0,0.,12.0
1981-08-24 09:06:28.160 ,6,1,0.,12.0,0.,12.0,0.,12.0,0.,12.0
1981-08-24 09:06:40.160 ,6,1,0.,12.0,0.,12.0,0.,12.0,0.,12.0
1981-08-24 09:06:52.160 ,6,0,0.,12.0,0.,12.0,0.,12.0,0.,12.0
1981-08-24 09:07:04.160 ,6,0,0.,12.0,0.,12.0,0.,12.0,0.,12.0
1981-08-24 09:07:16.160 ,5,1,0.,12.0,0.,12.0,0.,12.0,0.,12.0
1981-08-24 09:07:28.160 ,5,1,0.,12.0,0.,12.0,0.,12.0,0.,12.0
1981-08-24 09:07:40.160 ,5,0,0.,12.0,0.,12.0,0.,12.0,0.,12.0
1981-08-24 09:07:52.160 ,5,0,0.,12.0,0.,12.0,0.,12.0,0.,12.0
1981-08-24 09:08:04.160 ,4,1,0.,12.0,0.,12.0,0.,12.0,0.,12.0
1981-08-24 09:08:16.160 ,4,1,0.,12.0,0.,12.0,0.,12.0,0.,12.0
1981-08-24 09:08:28.160 ,4,0,0.,12.0,0.,12.0,0.,12.0,0.,12.0
1981-08-24 09:08:40.160 ,4,0,0.,12.0,0.,12.0,0.,12.0,0.,12.0
1981-08-24 09:08:52.160 ,3,1,0.,12.0,0.,12.0,0.,12.0,0.,12.0
1981-08-24 09:09:04.160 ,3,1,0.,12.0,0.,12.0,0.,12.0,0.,12.0
1981-08-24 09:09:16.160 ,3,0,0.,12.0,0.,12.0,0.,12.0,0.,12.0
1981-08-24 09:09:28.160 ,3,0,0.,12.0,0.,12.0,0.,12.0,0.,12.0
1981-08-24 09:09:40.160 ,2,1,0.,12.0,0.,12.0,0.,12.0,0.,12.0
1981-08-24 09:09:52.160 ,2,1,0.,12.0,0.,12.0,0.,12.0,0.,12.0
1981-08-24 09:10:04.160 ,2,0,0.,12.0,0.,12.0,0.,12.0,0.,12.0
1981-08-24 09:10:16.160 ,2,0,0.,12.0,0.,12.0,0.,12.0,0.,12.0
1981-08-24 09:10:28.160 ,1,1,0.,12.0,0.,12.0,0.,12.0,0.,12.0
1981-08-24 09:10:40.160 ,1,1,0.,12.0,0.,12.0,0.,12.0,0.,12.0
1981-08-24 09:10:52.160 ,1,0,0.,12.0,0.,12.0,0.,12.0,0.,12.0
1981-08-24 09:11:04.160 ,1,0,0.,12.0,0.,12.0,0.,12.0,0.,12.0
1981-08-24 09:11:16.160 ,0,1,0.,12.0,0.,12.0,0.,12.0,0.,12.0
1981-08-24 09:11:28.160 ,0,1,0.,12.0,0.,12.0,0.,12.0,0.,12.0
1981-08-24 09:11:40.160 ,0,0,0.,12.0,0.,12.0,0.,12.0,0.,12.0
1981-08-24 09:11:52.160 ,0,0,0.,12.0,0.,12.0,0.,12.0,0.,12.0
1981-08-24 09:12:04.160 ,0,1,0.,12.0,0.,12.0,0.,12.0,0.,12.0
1981-08-24 09:12:16.160 ,0,1,0.,12.0,0.,12.0,0.,12.0,0.,12.0
1981-08-24 09:12:28.160 ,0,0,0.,12.0,0.,12.0,0.,12.0,0.,12.0
1981-08-24 09:12:40.160 ,0,0,0.,12.0,0.,12.0,0.,12.0,0.,12.0
1981-08-24 09:12:52.160 ,1,1,0.,12.0,0.,12.0,0.,12.0,0.,12.0
1981-08-24 09:13:04.160 ,1,1,0.,12.0,0.,12.0,0.,12.0,0.,12.0
1981-08-24 09:13:16.160 ,1,0,0.,12.0,0.,12.0,0.,12.0,0.,12.0
1981-08-24 09:13:28.160 ,1,0,0.,12.0,0.,12.0,0.,12.0,0.,12.0
1981-08-24 09:13:40.160 ,2,1,0.,12.0,0.,12.0,0.,12.0,0.,12.0
1981-08-24 09:13:52.160 ,2,1,0.,12.0,0.,12.0,0.,12.0,0.,12.0
1981-08-24 09:14:04.160 ,2,0,0.,12.0,0.,12.0,0.,12.0,0.,12.0
1981-08-24 09:14:16.160 ,2,0,0.,12.0,0.,12.0,0.,12.0,0.,12.0
1981-08-24 09:14:28.160 ,3,1,0.,12.0,0.,12.0,0.,12.0,0.,12.0
1981-08-24 09:14:40.160 ,3,1,0.,12.0,0.,12.0,0.,12.0,0.,12.0
1981-08-24 09:14:52.160 ,3,0,0.,12.0,0.,12.0,0.,12.0,0.,12.0
1981-08-24 09:15:04.160 ,3,0,0.,12.0,0.,12.0,0.,12.0,0.,12.0
1981-08-24 09:15:16.160 ,4,1,0.,12.0,0.,12.0,0.,12.0,0.,12.0
1981-08-24 09:15:28.160 ,4,1,0.,12.0,0.,12.0,0.,12.0,0.,12.0
1981-08-24 09:15:40.160 ,4,0,0.,12.0,0.,12.0,0.,12.0,0.,12.0
1981-08-24 09:15:52.160 ,4,0,0.,12.0,0.,12.0,0.,12.0,0.,12.0
1981-08-24 09:16:04.160 ,5,1,0.,12.0,0.,12.0,0.,12.0,0.,12.0
1981-08-24 09:16:16.160 ,5,1,0.,12.0,0.,12.0,0.,12.0,0.,12.0
1981-08-24 09:16:28.160 ,5,0,0.,12.0,0.,12.0,0.,12.0,0.,12.0
1981-08-24 09:16:40.160 ,5,0,0.,12.0,0.,12.0,0.,12.0,0.,12.0
1981-08-24 09:16:52.160 ,6,1,0.,12.0,0.,12.0,0.,12.0,0.,12.0
1981-08-24 09:17:04.160 ,6,1,0.,12.0,0.,12.0,0.,12.0,0.,12.0
1981-08-24 09:17:16.160 ,6,0,0.,12.0,0.,12.0,0.,12.0,0.,12.0
1981-08-24 09:17:28.160 ,6,0,0.,12.0,0.,12.0,0.,12.0,0.,12.0
1981-08-24 09:17:40.160 ,7,1,0.,12.0,0.,12.0,0.,12.0,0.,12.0
1981-08-24 09:17:52.160 ,7,1,0.,12.0,0.,12.0,0.,12.0,0.,12.0
1981-08-24 09:18:04.160 ,7,0,0.,12.0,0.,12.0,0.,12.0,0.,12.0
1981-08-24 09:18:16.160 ,7,0,0.,12.0,0.,12.0,0.,12.0,0.,12.0
1981-08-24 09:18:28.160 ,7,1,0.,12.0,0.,12.0,0.,12.0,0.,12.0
1981-08-24 09:18:40.160 ,7,1,0.,12.0,0.,12.0,0.,12.0,0.,12.0
1981-08-24 09:18:52.160 ,6,1,0.,12.0,0.,12.0,0.,12.0,0.,12.0
1981-08-24 09:19:04.160 ,6,1,0.,12.0,0.,12.0,0.,12.0,0.,12.0
1981-08-24 09:19:16.160 ,5,1,0.,12.0,0.,12.0,0.,12.0,0.,12.0
1981-08-24 09:19:28.160 ,5,1,0.,12.0,0.,12.0,0.,12.0,0.,12.0
1981-08-24 09:19:40.160 ,4,1,0.,12.0,0.,12.0,0.,12.0,0.,12.0
1981-08-24 09:19:52.160 ,4,1,0.,12.0,0.,12.0,0.,12.0,0.,12.0
1981-08-24 09:20:04.160 ,3,1,0.,12.0,0.,12.0,0.,12.0,0.,12.0
1981-08-24 09:20:16.160 ,3,1,0.,12.0,0.,12.0,0.,12.0,0.,12.0
1981-08-24 09:20:28.160 ,2,1,0.,12.0,0.,12.0,0.,12.0,0.,12.0
1981-08-24 09:20:40.160 ,2,1,0.,12.0,0.,12.0,0.,12.0,0.,12.0
1981-08-24 09:20:52.160 ,1,1,0.,12.0,0.,12.0,0.,12.0,0.,12.0
1981-08-24 09:21:04.160 ,1,1,0.,12.0,0.,12.0,0.,12.0,0.,12.0
1981-08-24 09:21:16.160 ,0,1,0.,12.0,0.,12.0,0.,12.0,0.,12.0
1981-08-24 09:21:28.160 ,0,1,0.,12.0,0.,12.0,0.,12.0,0.,12.0
1981-08-24 09:21:40.160 ,0,1,0.,12.0,0.,12.0,0.,12.0,0.,12.0
1981-08-24 09:21:52.160 ,0,1,0.,12.0,0.,12.0,0.,12.0,0.,12.0
1981-08-24 09:22:04.160 ,1,1,0.,12.0,0.,12.0,0.,12.0,0.,12.0
1981-08-24 09:22:16.160 ,1,1,0.,12.0,0.,12.0,0.,12.0,0.,12.0
1981-08-24 09:22:28.160 ,2,1,0.,12.0,0.,12.0,0.,12.0,0.,12.0
1981-08-24 09:22:40.160 ,2,1,0.,12.0,0.,12.0,0.,12.0,0.,12.0
1981-08-24 09:22:52.160 ,3,1,0.,12.0,0.,12.0,0.,12.0,0.,12.0
1981-08-24 09:23:04.160 ,3,1,0.,12.0,0.,12.0,0.,12.0,0.,12.0
1981-08-24 09:23:16.160 ,4,1,0.,12.0,0.,12.0,0.,12.0,0.,12.0
1981-08-24 09:23:28.160 ,4,1,0.,12.0,0.,12.0,0.,12.0,0.,12.0
1981-08-24 09:23:40.160 ,5,1,0.,12.0,0.,12.0,0.,12.0,0.,12.0
1981-08-24 09:23:52.160 ,5,1,0.,12.0,0.,12.0,0.,12.0,0.,12.0
1981-08-24 09:24:04.160 ,6,1,0.,12.0,0.,12.0,0.,12.0,0.,12.0
1981-08-24 09:24:16.160 ,6,1,0.,12.0,0.,12.0,0.,12.0,0.,12.0
1981-08-24 09:24:28.160 ,7,1,0.,12.0,0.,12.0,0.,12.0,0.,12.0
1981-08-24 09:24:40.160 ,7,1,0.,12.0,0.,12.0,0.,12.0,0.,12.0
1981-08-24 09:24:52.160 ,7,1,0.,12.0,0.,12.0,0.,12.0,0.,12.0
1981-08-24 09:25:04.160 ,7,1,0.,12.0,0.,12.0,0.,12.0,0.,12.0
1981-08-24 09:25:16.160 ,7,0,0.,12.0,0.,12.0,0.,12.0,0.,12.0
1981-08-24 09:25:28.160 ,7,0,0.,12.0,0.,12.0,0.,12.0,0.,12.0
1981-08-24 09:25:40.160 ,6,1,0.,12.0,0.,12.0,0.,12.0,0.,12.0
1981-08-24 09:25:52.160 ,6,1,0.,12.0,0.,12.0,0.,12.0,0.,12.0
1981-08-24 09:26:04.160 ,6,0,0.,12.0,0.,12.0,0.,12.0,0.,12.0
1981-08-24 09:26:16.160 ,6,0,0.,12.0,0.,12.0,0.,12.0,0.,12.0
1981-08-24 09:26:28.160 ,5,1,0.,12.0,0.,12.0,0.,12.0,0.,12.0
1981-08-24 09:26:40.160 ,5,1,0.,12.0,0.,12.0,0.,12.0,0.,12.0
1981-08-24 09:26:52.160 ,5,0,0.,12.0,0.,12.0,0.,12.0,0.,12.0
1981-08-24 09:27:04.160 ,5,0,0.,12.0,0.,12.0,0.,12.0,0.,12.0
1981-08-24 09:27:16.160 ,4,1,0.,12.0,0.,12.0,0.,12.0,0.,12.0
1981-08-24 09:27:28.160 ,4,1,0.,12.0,0.,12.0,0.,12.0,0.,12.0
1981-08-24 09:27:40.160 ,4,0,0.,12.0,0.,12.0,0.,12.0,0.,12.0
1981-08-24 09:27:52.160 ,4,0,0.,12.0,0.,12.0,0.,12.0,0.,12.0
1981-08-24 09:28:04.160 ,3,1,0.,12.0,0.,12.0,0.,12.0,0.,12.0
1981-08-24 09:28:16.160 ,3,1,0.,12.0,0.,12.0,0.,12.0,0.,12.0
1981-08-24 09:28:28.160 ,3,0,0.,12.0,0.,12.0,0.,12.0,0.,12.0
1981-08-24 09:28:40.160 ,3,0,0.,12.0,0.,12.0,0.,12.0,0.,12.0
1981-08-24 09:29:40.160 ,0,0,0.,12.0,0.,12.0,0.,12.0,0.,12.0
1981-08-24 09:29:52.160 ,0,0,0.,12.0,0.,12.0,0.,12.0,0.,12.0
1981-08-24 09:30:04.160 ,0,0,0.,12.0,0.,12.0,0.,12.0,0.,12.0
1981-08-24 09:30:16.160 ,0,0,0.,12.0,0.,12.0,0.,12.0,0.,12.0
1981-08-24 09:30:28.160 ,0,1,0.,12.0,0.,12.0,0.,12.0,0.,12.0
1981-08-24 09:30:40.160 ,0,1,0.,12.0,0.,12.0,0.,12.0,0.,12.0
1981-08-24 09:30:52.160 ,0,0,0.,12.0,0.,12.0,0.,12.0,0.,12.0
1981-08-24 09:31:04.160 ,0,0,0.,12.0,0.,12.0,0.,12.0,0.,12.0
1981-08-24 09:31:16.160 ,0,1,0.,12.0,0.,12.0,0.,12.0,0.,12.0
1981-08-24 09:31:28.160 ,0,1,0.,12.0,0.,12.0,0.,12.0,0.,12.0
1981-08-24 09:31:40.160 ,0,0,0.,12.0,0.,12.0,0.,12.0,0.,12.0
1981-08-24 09:31:52.160 ,0,0,0.,12.0,0.,12.0,0.,12.0,0.,12.0
1981-08-24 09:32:04.160 ,1,1,0.,12.0,0.,12.0,0.,12.0,0.,12.0
1981-08-24 09:32:16.160 ,1,1,0.,12.0,0.,12.0,0.,12.0,0.,12.0
1981-08-24 09:32:28.160 ,1,0,0.,12.0,0.,12.0,0.,12.0,0.,12.0
1981-08-24 09:32:40.160 ,1,0,0.,12.0,0.,12.0,0.,12.0,0.,12.0
1981-08-24 09:32:52.160 ,2,1,0.,12.0,0.,12.0,0.,12.0,0.,12.0
1981-08-24 09:33:04.160 ,2,1,0.,12.0,0.,12.0,0.,12.0,0.,12.0
1981-08-24 09:33:16.160 ,2,0,0.,12.0,0.,12.0,0.,12.0,0.,12.0
1981-08-24 09:33:28.160 ,2,0,0.,12.0,0.,12.0,0.,12.0,0.,12.0
1981-08-24 09:33:40.160 ,3,1,0.,12.0,0.,12.0,0.,12.0,0.,12.0
1981-08-24 09:33:52.160 ,3,1,0.,12.0,0.,12.0,0.,12.0,0.,12.0
1981-08-24 09:34:04.160 ,3,0,0.,12.0,0.,12.0,0.,12.0,0.,12.0
1981-08-24 09:34:16.160 ,3,0,0.,12.0,0.,12.0,0.,12.0,0.,12.0
1981-08-24 09:34:04.160 ,3,0,0.,12.0,0.,12.0,0.,12.0,0.,12.0
1981-08-24 09:34:16.160 ,3,0,0.,12.0,0.,12.0,0.,12.0,0.,12.0
1981-08-24 09:34:28.160 ,4,1,0.,12.0,0.,12.0,0.,12.0,0.,12.0
1981-08-24 09:34:40.160 ,4,1,0.,12.0,0.,12.0,0.,12.0,0.,12.0
1981-08-24 09:34:52.160 ,4,0,0.,12.0,0.,12.0,0.,12.0,0.,12.0
1981-08-24 09:35:04.160 ,4,0,0.,12.0,0.,12.0,0.,12.0,0.,12.0
1981-08-24 09:35:16.160 ,5,1,0.,12.0,0.,12.0,0.,12.0,0.,12.0
1981-08-24 09:35:28.160 ,5,1,0.,12.0,0.,12.0,0.,12.0,0.,12.0
1981-08-24 09:35:40.160 ,5,0,0.,12.0,0.,12.0,0.,12.0,0.,12.0
1981-08-24 09:35:52.160 ,5,0,0.,12.0,0.,12.0,0.,12.0,0.,12.0
1981-08-24 09:36:04.160 ,6,1,0.,12.0,0.,12.0,0.,12.0,0.,12.0
1981-08-24 09:36:16.160 ,6,1,0.,12.0,0.,12.0,0.,12.0,0.,12.0
1981-08-24 09:36:28.160 ,6,0,0.,12.0,0.,12.0,0.,12.0,0.,12.0
1981-08-24 09:36:40.160 ,6,0,0.,12.0,0.,12.0,0.,12.0,0.,12.0
1981-08-24 09:36:52.160 ,7,1,0.,12.0,0.,12.0,0.,12.0,0.,12.0
1981-08-24 09:37:04.160 ,7,1,0.,12.0,0.,12.0,0.,12.0,0.,12.0
1981-08-24 09:37:16.160 ,7,0,0.,12.0,0.,12.0,0.,12.0,0.,12.0
1981-08-24 09:37:28.160 ,7,0,0.,12.0,0.,12.0,0.,12.0,0.,12.0
1981-08-24 09:37:40.160 ,7,1,0.,12.0,0.,12.0,0.,12.0,0.,12.0
1981-08-24 09:37:52.160 ,7,1,0.,12.0,0.,12.0,0.,12.0,0.,12.0
1981-08-24 09:38:04.160 ,6,1,0.,12.0,0.,12.0,0.,12.0,0.,12.0
1981-08-24 09:38:16.160 ,6,1,0.,12.0,0.,12.0,0.,12.0,0.,12.0
1981-08-24 09:38:28.160 ,0,0,0.,12.0,0.,12.0,0.,12.0,0.,12.0
1981-08-24 09:38:40.160 ,0,0,,0,,0,,0,,0
1981-08-24 09:38:52.160 ,0,0,,0,,0,,0,,0
1981-08-24 09:39:04.160 ,0,0,,0,,0,,0,,0
1981-08-24 09:38:52.160 ,4,1,0.,12.0,0.,12.0,0.,12.0,0.,12.0
1981-08-24 09:39:04.160 ,4,1,0.,12.0,0.,12.0,0.,12.0,0.,12.0
1981-08-24 09:39:16.160 ,3,1,0.,12.0,0.,12.0,0.,12.0,0.,12.0
1981-08-24 09:39:28.160 ,3,1,0.,12.0,0.,12.0,0.,12.0,0.,12.0
1981-08-24 09:39:40.160 ,2,1,0.,12.0,0.,12.0,0.,12.0,0.,12.0
1981-08-24 09:39:52.160 ,2,1,0.,12.0,0.,12.0,0.,12.0,0.,12.0
1981-08-24 09:40:04.160 ,1,1,0.,12.0,0.,12.0,0.,12.0,0.,12.0
1981-08-24 09:40:16.160 ,1,1,0.,12.0,0.,12.0,0.,12.0,0.,12.0
1981-08-24 09:40:28.160 ,0,1,0.,12.0,0.,12.0,0.,12.0,0.,12.0
1981-08-24 09:40:40.160 ,0,1,0.,12.0,0.,12.0,0.,12.0,0.,12.0
1981-08-24 09:40:52.160 ,0,1,,0,,0,,0,,0
1981-08-24 09:41:04.160 ,0,1,0.,12.0,0.,12.0,0.,12.0,0.,12.0
1981-08-24 09:41:16.160 ,1,1,,0,,0,,0,,0
1981-08-24 09:41:28.160 ,1,1,0.,12.0,0.,12.0,0.,12.0,0.,12.0
1981-08-24 09:41:40.160 ,2,1,0.,12.0,0.,12.0,0.,12.0,0.,12.0
1981-08-24 09:41:52.160 ,2,1,0.,12.0,0.,12.0,0.,12.0,0.,12.0
1981-08-24 09:42:04.160 ,3,1,0.,12.0,0.,12.0,0.,12.0,0.,12.0
1981-08-24 09:42:16.160 ,3,1,0.,12.0,0.,12.0,0.,12.0,0.,12.0
1981-08-24 09:42:28.160 ,4,1,0.,12.0,0.,12.0,0.,12.0,0.,12.0
1981-08-24 09:42:40.160 ,4,1,0.,12.0,0.,12.0,0.,12.0,0.,12.0
1981-08-24 09:42:52.160 ,5,1,0.,12.0,0.,12.0,0.,12.0,0.,12.0
1981-08-24 09:43:04.160 ,5,1,0.,12.0,0.,12.0,0.,12.0,0.,12.0
1981-08-24 09:43:16.160 ,6,1,0.,12.0,0.,12.0,0.,12.0,0.,12.0
1981-08-24 09:43:28.160 ,6,1,0.,12.0,0.,12.0,0.,12.0,0.,12.0
1981-08-24 09:43:40.160 ,7,1,0.,12.0,0.,12.0,0.,12.0,0.,12.0
1981-08-24 09:43:52.160 ,7,1,0.,12.0,0.,12.0,0.,12.0,0.,12.0
1981-08-24 09:44:04.160 ,7,1,0.,12.0,0.,12.0,0.,12.0,0.,12.0
1981-08-24 09:44:16.160 ,7,1,0.,12.0,0.,12.0,0.,12.0,0.,12.0
1981-08-24 09:44:28.160 ,7,0,0.,12.0,0.,12.0,0.,12.0,0.,12.0
1981-08-24 09:44:40.160 ,7,0,0.,12.0,0.,12.0,0.,12.0,0.,12.0
1981-08-24 09:44:52.160 ,6,1,0.,12.0,0.,12.0,0.,12.0,0.,12.0
1981-08-24 09:45:04.160 ,6,1,0.,12.0,0.,12.0,0.,12.0,0.,12.0
1981-08-24 09:45:16.160 ,6,0,0.,12.0,0.,12.0,0.,12.0,0.,12.0
1981-08-24 09:45:28.160 ,6,0,0.,12.0,0.,12.0,0.,12.0,0.,12.0
1981-08-24 09:45:40.160 ,5,1,0.,12.0,0.,12.0,0.,12.0,0.,12.0
1981-08-24 09:45:52.160 ,5,1,0.,12.0,0.,12.0,0.,12.0,0.,12.0
1981-08-24 09:46:04.160 ,5,0,0.,12.0,0.,12.0,0.,12.0,0.,12.0
1981-08-24 09:46:16.160 ,5,0,0.,12.0,0.,12.0,0.,12.0,0.,12.0
1981-08-24 09:48:04.160 ,0,0,0.,12.0,0.,12.0,0.,12.0,0.,12.0
1981-08-24 09:48:16.160 ,0,0,0.,12.0,0.,12.0,0.,12.0,0.,12.0
1981-08-24 09:48:28.160 ,0,0,0.,12.0,0.,12.0,0.,12.0,0.,12.0
1981-08-24 09:48:40.160 ,0,0,0.,12.0,0.,12.0,0.,12.0,0.,12.0
1981-08-24 09:48:52.160 ,1,1,0.,12.0,0.,12.0,0.,12.0,0.,12.0
1981-08-24 09:49:04.160 ,1,1,0.,12.0,0.,12.0,0.,12.0,0.,12.0
1981-08-24 09:49:16.160 ,1,0,0.,12.0,0.,12.0,0.,12.0,0.,12.0
1981-08-24 09:49:28.160 ,1,0,0.,12.0,0.,12.0,0.,12.0,0.,12.0
1981-08-24 09:49:40.160 ,0,1,0.,12.0,0.,12.0,0.,12.0,0.,12.0
1981-08-24 09:49:52.160 ,0,1,0.,12.0,0.,12.0,0.,12.0,0.,12.0
1981-08-24 09:50:04.160 ,0,0,0.,12.0,0.,12.0,0.,12.0,0.,12.0
1981-08-24 09:50:16.160 ,0,0,0.,12.0,0.,12.0,0.,12.0,0.,12.0
1981-08-24 09:50:28.160 ,0,1,0.,12.0,0.,12.0,0.,12.0,0.,12.0
1981-08-24 09:50:40.160 ,0,1,0.,12.0,0.,12.0,0.,12.0,0.,12.0
1981-08-24 09:50:52.160 ,0,0,0.,12.0,0.,12.0,0.,12.0,0.,12.0
1981-08-24 09:51:04.160 ,0,0,0.,12.0,0.,12.0,0.,12.0,0.,12.0
1981-08-24 09:51:16.160 ,1,1,0.,12.0,0.,12.0,0.,12.0,0.,12.0
1981-08-24 09:51:28.160 ,1,1,0.,12.0,0.,12.0,0.,12.0,0.,12.0
1981-08-24 09:51:40.160 ,1,0,0.,12.0,0.,12.0,0.,12.0,0.,12.0
1981-08-24 09:51:52.160 ,1,0,0.,12.0,0.,12.0,0.,12.0,0.,12.0
1981-08-24 09:52:04.160 ,2,1,0.,12.0,0.,12.0,0.,12.0,0.,12.0
1981-08-24 09:52:16.160 ,2,1,0.,12.0,0.,12.0,0.,12.0,0.,12.0
1981-08-24 09:52:28.160 ,2,0,0.,12.0,0.,12.0,0.,12.0,0.,12.0
1981-08-24 09:52:40.160 ,2,0,0.,12.0,0.,12.0,0.,12.0,0.,12.0
1981-08-24 09:52:52.160 ,3,1,0.,12.0,0.,12.0,0.,12.0,0.,12.0
1981-08-24 09:53:04.160 ,3,1,0.,12.0,0.,12.0,0.,12.0,0.,12.0
1981-08-24 09:53:16.160 ,3,0,0.,12.0,0.,12.0,0.,12.0,0.,12.0
1981-08-24 09:53:28.160 ,3,0,0.,12.0,0.,12.0,0.,12.0,0.,12.0
1981-08-24 09:53:40.160 ,4,1,0.,12.0,0.,12.0,0.,12.0,0.,12.0
1981-08-24 09:53:52.160 ,4,1,0.,12.0,0.,12.0,0.,12.0,0.,12.0
1981-08-24 09:54:04.160 ,4,0,0.,12.0,0.,12.0,0.,12.0,0.,12.0
1981-08-24 09:54:16.160 ,4,0,0.,12.0,0.,12.0,0.,12.0,0.,12.0
1981-08-24 09:54:28.160 ,5,1,0.,12.0,0.,12.0,0.,12.0,0.,12.0
1981-08-24 09:54:40.160 ,5,1,0.,12.0,0.,12.0,0.,12.0,0.,12.0
1981-08-24 09:54:52.160 ,5,0,0.,12.0,0.,12.0,0.,12.0,0.,12.0
1981-08-24 09:55:04.160 ,5,0,0.,12.0,0.,12.0,0.,12.0,0.,12.0
1981-08-24 09:55:16.160 ,6,1,0.,12.0,0.,12.0,0.,12.0,0.,12.0
1981-08-24 09:55:28.160 ,6,1,0.,12.0,0.,12.0,0.,12.0,0.,12.0
1981-08-24 09:55:40.160 ,6,0,0.,12.0,0.,12.0,0.,12.0,0.,12.0
1981-08-24 09:55:52.160 ,6,0,0.,12.0,0.,12.0,0.,12.0,0.,12.0
1981-08-24 09:56:04.160 ,7,1,0.,12.0,0.,12.0,0.,12.0,0.,12.0
1981-08-24 09:56:16.160 ,7,1,0.,12.0,0.,12.0,0.,12.0,0.,12.0
1981-08-24 09:56:28.160 ,7,0,0.,12.0,0.,12.0,0.,12.0,0.,12.0
1981-08-24 09:56:40.160 ,7,0,0.,12.0,0.,12.0,0.,12.0,0.,12.0
1981-08-24 09:56:52.160 ,7,1,0.,12.0,0.,12.0,0.,12.0,0.,12.0
1981-08-24 09:57:04.160 ,7,1,0.,12.0,0.,12.0,0.,12.0,0.,12.0
1981-08-24 09:57:16.160 ,6,1,0.,12.0,0.,12.0,0.,12.0,0.,12.0
1981-08-24 09:57:28.160 ,6,1,0.,12.0,0.,12.0,0.,12.0,0.,12.0
1981-08-24 09:57:40.160 ,5,1,0.,12.0,0.,12.0,0.,12.0,0.,12.0
1981-08-24 09:57:52.160 ,5,1,0.,12.0,0.,12.0,0.,12.0,0.,12.0
1981-08-24 09:58:04.160 ,4,1,0.,12.0,0.,12.0,0.,12.0,0.,12.0
1981-08-24 09:58:16.160 ,4,1,0.,12.0,0.,12.0,0.,12.0,0.,12.0
1981-08-24 09:58:28.160 ,3,1,0.,12.0,0.,12.0,0.,12.0,0.,12.0
1981-08-24 09:58:40.160 ,3,1,0.,12.0,0.,12.0,0.,12.0,0.,12.0
1981-08-24 09:58:52.160 ,2,1,0.,12.0,0.,12.0,0.,12.0,0.,12.0
1981-08-24 09:59:04.160 ,2,1,0.,12.0,0.,12.0,0.,12.0,0.,12.0
1981-08-24 09:59:16.160 ,1,1,0.,12.0,0.,12.0,0.,12.0,0.,12.0
1981-08-24 09:59:28.160 ,1,1,0.,12.0,0.,12.0,0.,12.0,0.,12.0
1981-08-24 09:59:40.160 ,0,1,0.,12.0,0.,12.0,0.,12.0,0.,12.0
1981-08-24 09:59:52.160 ,0,1,0.,12.0,0.,12.0,0.,12.0,0.,12.0
1981-08-24 10:00:04.160 ,0,1,0.,12.0,0.,12.0,0.,12.0,0.,12.0
1981-08-24 10:00:16.160 ,0,1,0.,12.0,0.,12.0,0.,12.0,0.,12.0
1981-08-24 10:00:52.160 ,2,1,0.,12.0,0.,12.0,0.,12.0,0.,12.0
1981-08-24 10:01:04.160 ,2,1,0.,12.0,0.,12.0,0.,12.0,0.,12.0
1981-08-24 10:01:16.160 ,3,1,0.,12.0,0.,12.0,0.,12.0,0.,12.0
1981-08-24 10:01:28.160 ,3,1,0.,12.0,0.,12.0,0.,12.0,0.,12.0
1981-08-24 10:01:40.160 ,4,1,0.,12.0,0.,12.0,0.,12.0,0.,12.0
1981-08-24 10:01:52.160 ,4,1,0.,12.0,0.,12.0,0.,12.0,0.,12.0
1981-08-24 10:02:04.160 ,0,0,,0,,0,,0,,0
1981-08-24 10:02:16.160 ,0,0,,0,,0,,0,,0
1981-08-24 10:02:28.160 ,0,0,0.,12.0,0.,12.0,0.,12.0,0.,12.0
1981-08-24 10:02:40.160 ,0,0,0.,12.0,0.,12.0,0.,12.0,0.,12.0
1981-08-24 10:02:52.160 ,7,1,0.,12.0,0.,12.0,0.,12.0,0.,12.0
1981-08-24 10:03:04.160 ,7,1,0.,12.0,0.,12.0,0.,12.0,0.,12.0
1981-08-24 10:03:16.160 ,7,1,0.,12.0,0.,12.0,0.,12.0,0.,12.0
1981-08-24 10:03:28.160 ,7,1,0.,12.0,0.,12.0,0.,12.0,0.,12.0
1981-08-24 10:03:40.160 ,7,0,0.,12.0,0.,12.0,0.,12.0,0.,12.0
1981-08-24 10:03:52.160 ,7,0,0.,12.0,0.,12.0,0.,12.0,0.,12.0
1981-08-24 10:04:04.160 ,6,1,0.,12.0,0.,12.0,0.,12.0,0.,12.0
1981-08-24 10:04:16.160 ,6,1,0.,12.0,0.,12.0,0.,12.0,0.,12.0
1981-08-24 10:04:28.160 ,6,0,0.,12.0,0.,12.0,0.,12.0,0.,12.0
1981-08-24 10:04:40.160 ,6,0,0.,12.0,0.,12.0,0.,12.0,0.,12.0
1981-08-24 10:04:52.160 ,5,1,0.,12.0,0.,12.0,0.,12.0,0.,12.0
1981-08-24 10:05:04.160 ,5,1,0.,12.0,0.,12.0,0.,12.0,0.,12.0
1981-08-24 10:05:16.160 ,5,0,0.,12.0,0.,12.0,0.,12.0,0.,12.0
1981-08-24 10:05:28.160 ,5,0,0.,12.0,0.,12.0,0.,12.0,0.,12.0
1981-08-24 10:05:40.160 ,4,1,0.,12.0,0.,12.0,0.,12.0,0.,12.0
1981-08-24 10:05:52.160 ,4,1,0.,12.0,0.,12.0,0.,12.0,0.,12.0
1981-08-24 10:06:04.160 ,4,0,0.,12.0,0.,12.0,0.,12.0,0.,12.0
1981-08-24 10:06:16.160 ,4,0,0.,12.0,0.,12.0,0.,12.0,0.,12.0
1981-08-24 10:06:28.160 ,3,1,0.,12.0,0.,12.0,0.,12.0,0.,12.0
1981-08-24 10:06:40.160 ,3,1,0.,12.0,0.,12.0,0.,12.0,0.,12.0
1981-08-24 10:06:52.160 ,3,0,0.,12.0,0.,12.0,0.,12.0,0.,12.0
1981-08-24 10:07:04.160 ,3,0,0.,12.0,0.,12.0,0.,12.0,0.,12.0
1981-08-24 10:07:16.160 ,2,1,0.,12.0,0.,12.0,0.,12.0,0.,12.0
1981-08-24 10:07:28.160 ,2,1,0.,12.0,0.,12.0,0.,12.0,0.,12.0
1981-08-24 10:07:40.160 ,2,0,0.,12.0,0.,12.0,0.,12.0,0.,12.0
1981-08-24 10:07:52.160 ,2,0,0.,12.0,0.,12.0,0.,12.0,0.,12.0
1981-08-24 10:08:04.160 ,1,1,0.,12.0,0.,12.0,0.,12.0,0.,12.0
1981-08-24 10:08:16.160 ,1,1,0.,12.0,0.,12.0,0.,12.0,0.,12.0
1981-08-24 10:08:28.160 ,1,0,0.,12.0,0.,12.0,0.,12.0,0.,12.0
1981-08-24 10:08:40.160 ,1,0,0.,12.0,0.,12.0,0.,12.0,0.,12.0
1981-08-24 10:08:52.160 ,0,1,0.,12.0,0.,12.0,0.,12.0,0.,12.0
1981-08-24 10:09:04.160 ,0,1,0.,12.0,0.,12.0,0.,12.0,0.,12.0
1981-08-24 10:09:16.160 ,0,0,0.,12.0,0.,12.0,0.,12.0,0.,12.0
1981-08-24 10:09:28.160 ,0,0,0.,12.0,0.,12.0,0.,12.0,0.,12.0
1981-08-24 10:09:40.160 ,0,1,0.,12.0,0.,12.0,0.,12.0,0.,12.0
1981-08-24 10:09:52.160 ,0,1,0.,12.0,0.,12.0,0.,12.0,0.,12.0
1981-08-24 10:10:04.160 ,0,0,,0,,0,,0,,0
1981-08-24 10:10:16.160 ,0,0,,0,,0,,0,,0
1981-08-24 10:10:28.160 ,1,1,0.,12.0,0.,12.0,0.,12.0,0.,12.0
1981-08-24 10:10:40.160 ,1,1,0.,12.0,0.,12.0,0.,12.0,0.,12.0
1981-08-24 10:10:52.160 ,1,0,0.,12.0,0.,12.0,0.,12.0,0.,12.0
1981-08-24 10:11:04.160 ,1,0,0.,12.0,0.,12.0,0.,12.0,0.,12.0
1981-08-24 10:11:16.160 ,2,1,0.,12.0,0.,12.0,0.,12.0,0.,12.0
1981-08-24 10:11:28.160 ,2,1,0.,12.0,0.,12.0,0.,12.0,0.,12.0
1981-08-24 10:11:40.160 ,2,0,0.,12.0,0.,12.0,0.,12.0,0.,12.0
1981-08-24 10:11:52.160 ,2,0,0.,12.0,0.,12.0,0.,12.0,0.,12.0
1981-08-24 10:12:04.160 ,3,1,0.,12.0,0.,12.0,0.,12.0,0.,12.0
1981-08-24 10:12:16.160 ,3,1,0.,12.0,0.,12.0,0.,12.0,0.,12.0
1981-08-24 10:12:28.160 ,3,0,0.,12.0,0.,12.0,0.,12.0,0.,12.0
1981-08-24 10:12:40.160 ,3,0,0.,12.0,0.,12.0,0.,12.0,0.,12.0
1981-08-24 10:12:52.160 ,4,1,0.,12.0,0.,12.0,0.,12.0,0.,12.0
1981-08-24 10:13:04.160 ,4,1,0.,12.0,0.,12.0,0.,12.0,0.,12.0
1981-08-24 10:13:16.160 ,4,0,0.,12.0,0.,12.0,0.,12.0,0.,12.0
1981-08-24 10:13:28.160 ,4,0,0.,12.0,0.,12.0,0.,12.0,0.,12.0
1981-08-24 10:13:40.160 ,5,1,0.,12.0,0.,12.0,0.,12.0,0.,12.0
1981-08-24 10:13:52.160 ,5,1,0.,12.0,0.,12.0,0.,12.0,0.,12.0
1981-08-24 10:14:04.160 ,5,0,0.,12.0,0.,12.0,0.,12.0,0.,12.0
1981-08-24 10:14:16.160 ,5,0,0.,12.0,0.,12.0,0.,12.0,0.,12.0
1981-08-24 10:14:28.160 ,6,1,0.,12.0,0.,12.0,0.,12.0,0.,12.0
1981-08-24 10:14:40.160 ,6,1,0.,12.0,0.,12.0,0.,12.0,0.,12.0
1981-08-24 10:14:52.160 ,6,0,0.,12.0,0.,12.0,0.,12.0,0.,12.0
1981-08-24 10:15:04.160 ,6,0,0.,12.0,0.,12.0,0.,12.0,0.,12.0
1981-08-24 10:15:16.160 ,7,1,0.,12.0,0.,12.0,0.,12.0,0.,12.0
1981-08-24 10:15:28.160 ,7,1,0.,12.0,0.,12.0,0.,12.0,0.,12.0
1981-08-24 10:15:40.160 ,7,0,0.,12.0,0.,12.0,0.,12.0,0.,12.0
1981-08-24 10:15:52.160 ,7,0,0.,12.0,0.,12.0,0.,12.0,0.,12.0
1981-08-24 10:16:04.160 ,7,1,0.,12.0,0.,12.0,0.,12.0,0.,12.0
1981-08-24 10:16:16.160 ,7,1,0.,12.0,0.,12.0,0.,12.0,0.,12.0
1981-08-24 10:16:28.160 ,6,1,0.,12.0,0.,12.0,0.,12.0,0.,12.0
1981-08-24 10:16:40.160 ,6,1,0.,12.0,0.,12.0,0.,12.0,0.,12.0
1981-08-24 10:16:52.160 ,5,1,0.,12.0,0.,12.0,0.,12.0,0.,12.0
1981-08-24 10:17:04.160 ,5,1,0.,12.0,0.,12.0,0.,12.0,0.,12.0
1981-08-24 10:17:16.160 ,4,1,0.,12.0,0.,12.0,0.,12.0,0.,12.0
1981-08-24 10:17:28.160 ,4,1,0.,12.0,0.,12.0,0.,12.0,0.,12.0
1981-08-24 10:17:40.160 ,3,1,0.,12.0,0.,12.0,0.,12.0,0.,12.0
1981-08-24 10:17:52.160 ,3,1,0.,12.0,0.,12.0,0.,12.0,0.,12.0
1981-08-24 10:18:04.160 ,2,1,0.,12.0,0.,12.0,0.,12.0,0.,12.0
1981-08-24 10:18:16.160 ,2,1,0.,12.0,0.,12.0,0.,12.0,0.,12.0
1981-08-24 10:18:28.160 ,1,1,0.,12.0,0.,12.0,0.,12.0,0.,12.0
1981-08-24 10:18:40.160 ,1,1,0.,12.0,0.,12.0,0.,12.0,0.,12.0
1981-08-24 10:18:52.160 ,0,1,0.,12.0,0.,12.0,0.,12.0,0.,12.0
1981-08-24 10:19:04.160 ,0,1,0.,12.0,0.,12.0,0.,12.0,0.,12.0
1981-08-24 10:19:16.160 ,0,1,0.,12.0,0.,12.0,0.,12.0,0.,12.0
1981-08-24 10:19:28.160 ,0,1,0.,12.0,0.,12.0,0.,12.0,0.,12.0
1981-08-24 10:19:40.160 ,1,1,0.,12.0,0.,12.0,0.,12.0,0.,12.0
1981-08-24 10:19:52.160 ,1,1,0.,12.0,0.,12.0,0.,12.0,0.,12.0
1981-08-24 10:20:04.160 ,2,1,0.,12.0,0.,12.0,0.,12.0,0.,12.0
1981-08-24 10:20:16.160 ,2,1,0.,12.0,0.,12.0,0.,12.0,0.,12.0
1981-08-24 10:20:28.160 ,3,1,0.,12.0,0.,12.0,0.,12.0,0.,12.0
1981-08-24 10:20:40.160 ,3,1,0.,12.0,0.,12.0,0.,12.0,0.,12.0
1981-08-24 10:20:52.160 ,4,1,0.,12.0,0.,12.0,0.,12.0,0.,12.0
1981-08-24 10:21:04.160 ,4,1,0.,12.0,0.,12.0,0.,12.0,0.,12.0
1981-08-24 10:21:16.160 ,0,0,0.,12.0,0.,12.0,0.,12.0,0.,12.0
1981-08-24 10:21:28.160 ,0,0,,0,,0,,0,,0
1981-08-24 10:21:16.160 ,5,1,0.,12.0,0.,12.0,0.,12.0,0.,12.0
1981-08-24 10:21:28.160 ,5,1,0.,12.0,0.,12.0,0.,12.0,0.,12.0
1981-08-24 10:21:40.160 ,6,1,0.,12.0,0.,12.0,0.,12.0,0.,12.0